Time,TemperatureF,DewpointF,PressureIn,WindDirection,WindDirectionDegrees,WindSpeedMPH,WindSpeedGustMPH,Humidity,HourlyPrecipIn,Conditions,Clouds,dailyrainin,SoftwareType,DateUTC
2013-07-19 00:04:00,76.9,74.0,29.95,NNW,337,0.0,0.0,89,0.00,,,0.00,weatherlink.com 1.10,2013-07-19 04:04:00,
2013-07-19 00:19:00,76.6,74.0,29.95,NNW,337,0.0,0.0,90,0.00,,,0.00,weatherlink.com 1.10,2013-07-19 04:19:00,
2013-07-19 00:34:00,76.3,74.0,29.95,NNW,337,0.0,0.0,91,0.00,,,0.00,weatherlink.com 1.10,2013-07-19 04:34:00,
2013-07-19 00:49:00,76.0,73.0,29.95,NNW,337,0.0,0.0,91,0.00,,,0.00,weatherlink.com 1.10,2013-07-19 04:49:00,
2013-07-19 01:04:00,75.7,73.0,29.96,NNW,337,0.0,0.0,92,0.00,,,0.00,weatherlink.com 1.10,2013-07-19 05:04:00,
2013-07-19 01:19:00,75.5,73.0,29.96,NNW,337,1.0,1.0,92,0.00,,,0.00,weatherlink.com 1.10,2013-07-19 05:19:00,
2013-07-19 01:34:00,75.3,73.0,29.96,NNW,337,0.0,0.0,93,0.00,,,0.00,weatherlink.com 1.10,2013-07-19 05:34:00,
2013-07-19 01:49:00,75.2,73.0,29.96,NNW,337,0.0,0.0,93,0.00,,,0.00,weatherlink.com 1.10,2013-07-19 05:49:00,
2013-07-19 02:04:00,75.1,73.0,29.95,NNW,337,0.0,0.0,93,0.00,,,0.00,weatherlink.com 1.10,2013-07-19 06:04:00,
2013-07-19 02:19:00,75.1,73.0,29.95,NNW,337,0.0,0.0,93,0.00,,,0.00,weatherlink.com 1.10,2013-07-19 06:19:00,
2013-07-19 02:34:00,75.1,73.0,29.95,NNW,337,0.0,0.0,93,0.00,,,0.00,weatherlink.com 1.10,2013-07-19 06:34:00,
2013-07-19 02:49:00,74.9,73.0,29.95,NNW,337,0.0,0.0,93,0.00,,,0.00,weatherlink.com 1.10,2013-07-19 06:49:00,
2013-07-19 03:04:00,74.7,73.0,29.94,NNW,337,0.0,0.0,93,0.00,,,0.00,weatherlink.com 1.10,2013-07-19 07:04:00,
2013-07-19 03:19:00,74.5,73.0,29.94,NNW,337,0.0,0.0,94,0.00,,,0.00,weatherlink.com 1.10,2013-07-19 07:19:00,
2013-07-19 03:34:00,74.6,73.0,29.94,NNW,337,0.0,0.0,94,0.00,,,0.00,weatherlink.com 1.10,2013-07-19 07:34:00,
2013-07-19 03:49:00,74.6,73.0,29.93,NNW,337,0.0,0.0,94,0.00,,,0.00,weatherlink.com 1.10,2013-07-19 07:49:00,
2013-07-19 04:04:00,74.4,73.0,29.93,NNW,337,0.0,0.0,94,0.00,,,0.00,weatherlink.com 1.10,2013-07-19 08:04:00,
2013-07-19 04:19:00,74.1,72.0,29.93,NNW,337,0.0,0.0,94,0.00,,,0.00,weatherlink.com 1.10,2013-07-19 08:19:00,
2013-07-19 04:34:00,73.9,72.0,29.93,NNW,337,0.0,0.0,94,0.00,,,0.00,weatherlink.com 1.10,2013-07-19 08:34:00,
2013-07-19 04:49:00,73.7,72.0,29.93,NNW,337,0.0,0.0,95,0.00,,,0.00,weatherlink.com 1.10,2013-07-19 08:49:00,
2013-07-19 05:05:00,73.5,72.0,29.93,NNW,337,0.0,0.0,95,0.00,,,0.00,weatherlink.com 1.10,2013-07-19 09:05:00,
2013-07-19 05:20:00,73.4,72.0,29.92,NNW,337,0.0,0.0,95,0.00,,,0.00,weatherlink.com 1.10,2013-07-19 09:20:00,
2013-07-19 05:35:00,73.2,72.0,29.93,NNW,337,0.0,0.0,95,0.00,,,0.00,weatherlink.com 1.10,2013-07-19 09:35:00,
2013-07-19 05:50:00,73.1,72.0,29.93,NNW,337,0.0,0.0,96,0.00,,,0.00,weatherlink.com 1.10,2013-07-19 09:50:00,
2013-07-19 06:05:00,73.1,72.0,29.93,NNW,337,0.0,0.0,96,0.00,,,0.00,weatherlink.com 1.10,2013-07-19 10:05:00,
2013-07-19 06:20:00,73.3,72.0,29.93,NNW,337,0.0,0.0,96,0.00,,,0.00,weatherlink.com 1.10,2013-07-19 10:20:00,
2013-07-19 06:35:00,73.5,72.0,29.93,NNW,337,0.0,0.0,96,0.00,,,0.00,weatherlink.com 1.10,2013-07-19 10:35:00,
2013-07-19 06:50:00,73.9,73.0,29.93,West,267,0.0,4.0,96,0.00,,,0.00,weatherlink.com 1.10,2013-07-19 10:50:00,
2013-07-19 07:05:00,74.9,73.0,29.92,NW,317,0.0,3.0,94,0.00,,,0.00,weatherlink.com 1.10,2013-07-19 11:05:00,
2013-07-19 07:20:00,75.8,73.0,29.93,NW,320,0.0,1.0,92,0.00,,,0.00,weatherlink.com 1.10,2013-07-19 11:20:00,
2013-07-19 07:35:00,76.6,74.0,29.93,SSW,211,0.0,1.0,91,0.00,,,0.00,weatherlink.com 1.10,2013-07-19 11:35:00,
2013-07-19 07:50:00,77.5,74.0,29.93,SSW,211,1.0,2.0,89,0.00,,,0.00,weatherlink.com 1.10,2013-07-19 11:50:00,
2013-07-19 08:05:00,78.6,75.0,29.93,East,88,0.0,2.0,87,0.00,,,0.00,weatherlink.com 1.10,2013-07-19 12:05:00,
2013-07-19 08:20:00,79.4,75.0,29.93,East,88,0.0,2.0,86,0.00,,,0.00,weatherlink.com 1.10,2013-07-19 12:20:00,
2013-07-19 08:35:00,80.0,75.0,29.93,SSE,161,0.0,3.0,84,0.00,,,0.00,weatherlink.com 1.10,2013-07-19 12:35:00,
2013-07-19 08:50:00,80.8,75.0,29.94,WSW,255,1.0,4.0,81,0.00,,,0.00,weatherlink.com 1.10,2013-07-19 12:50:00,
2013-07-19 09:05:00,81.4,75.0,29.94,North,355,1.0,6.0,81,0.00,,,0.00,weatherlink.com 1.10,2013-07-19 13:05:00,
2013-07-19 09:20:00,83.1,75.0,29.93,North,350,2.0,8.0,77,0.00,,,0.00,weatherlink.com 1.10,2013-07-19 13:20:00,
2013-07-19 09:35:00,83.6,76.0,29.93,NE,36,0.0,3.0,77,0.00,,,0.00,weatherlink.com 1.10,2013-07-19 13:35:00,
2013-07-19 09:50:00,84.1,76.0,29.93,SW,227,12.0,12.0,76,0.00,,,0.00,weatherlink.com 1.10,2013-07-19 13:50:00,
2013-07-19 10:05:00,85.1,76.0,29.92,North,355,0.0,5.0,74,0.00,,,0.00,weatherlink.com 1.10,2013-07-19 14:05:00,
2013-07-19 10:20:00,85.7,76.0,29.92,SW,232,0.0,6.0,73,0.00,,,0.00,weatherlink.com 1.10,2013-07-19 14:20:00,
2013-07-19 10:35:00,86.1,76.0,29.91,East,101,0.0,7.0,71,0.00,,,0.00,weatherlink.com 1.10,2013-07-19 14:35:00,
2013-07-19 10:50:00,86.8,76.0,29.91,NNW,340,0.0,8.0,71,0.00,,,0.00,weatherlink.com 1.10,2013-07-19 14:50:00,
2013-07-19 11:05:00,87.5,75.0,29.91,NNW,344,2.0,10.0,67,0.00,,,0.00,weatherlink.com 1.10,2013-07-19 15:05:00,
2013-07-19 11:20:00,88.1,77.0,29.90,WNW,284,1.0,9.0,69,0.00,,,0.00,weatherlink.com 1.10,2013-07-19 15:20:00,
2013-07-19 11:35:00,88.6,76.0,29.90,SW,229,1.0,11.0,66,0.00,,,0.00,weatherlink.com 1.10,2013-07-19 15:35:00,
2013-07-19 11:51:00,89.1,76.0,29.89,SSW,194,4.0,10.0,65,0.00,,,0.00,weatherlink.com 1.10,2013-07-19 15:51:00,
2013-07-19 12:06:00,89.6,76.0,29.89,SW,225,2.0,7.0,64,0.00,,,0.00,weatherlink.com 1.10,2013-07-19 16:06:00,
2013-07-19 12:21:00,90.4,77.0,29.88,West,271,2.0,10.0,65,0.00,,,0.00,weatherlink.com 1.10,2013-07-19 16:21:00,
2013-07-19 12:36:00,91.2,77.0,29.88,West,261,8.0,8.0,63,0.00,,,0.00,weatherlink.com 1.10,2013-07-19 16:36:00,
2013-07-19 12:51:00,91.9,74.0,29.87,SW,235,7.0,8.0,57,0.00,,,0.00,weatherlink.com 1.10,2013-07-19 16:51:00,
2013-07-19 13:06:00,91.9,75.0,29.86,East,97,2.0,9.0,58,0.00,,,0.00,weatherlink.com 1.10,2013-07-19 17:06:00,
2013-07-19 13:21:00,91.5,76.0,29.86,ENE,70,1.0,6.0,61,0.00,,,0.00,weatherlink.com 1.10,2013-07-19 17:21:00,
2013-07-19 13:36:00,91.9,77.0,29.85,West,275,1.0,10.0,62,0.00,,,0.00,weatherlink.com 1.10,2013-07-19 17:36:00,
2013-07-19 13:51:00,92.4,75.0,29.85,SW,233,1.0,9.0,57,0.00,,,0.00,weatherlink.com 1.10,2013-07-19 17:51:00,
2013-07-19 14:06:00,92.8,75.0,29.84,WSW,242,2.0,8.0,57,0.00,,,0.00,weatherlink.com 1.10,2013-07-19 18:06:00,
2013-07-19 14:36:00,92.4,78.0,29.84,WNW,283,2.0,7.0,62,0.00,,,0.00,weatherlink.com 1.10,2013-07-19 18:36:00,
2013-07-19 14:51:00,92.0,76.0,29.82,WSW,247,3.0,9.0,59,0.00,,,0.00,weatherlink.com 1.10,2013-07-19 18:51:00,
2013-07-19 15:06:00,92.2,77.0,29.82,West,276,0.0,7.0,62,0.00,,,0.00,weatherlink.com 1.10,2013-07-19 19:06:00,
2013-07-19 15:21:00,92.0,77.0,29.81,WSW,240,0.0,9.0,61,0.00,,,0.00,weatherlink.com 1.10,2013-07-19 19:21:00,
2013-07-19 15:36:00,92.6,78.0,29.80,South,178,2.0,6.0,62,0.00,,,0.00,weatherlink.com 1.10,2013-07-19 19:36:00,
2013-07-19 15:51:00,92.5,77.0,29.80,ESE,123,2.0,11.0,60,0.00,,,0.00,weatherlink.com 1.10,2013-07-19 19:51:00,
2013-07-19 16:06:00,92.4,78.0,29.79,WSW,246,1.0,11.0,62,0.00,,,0.00,weatherlink.com 1.10,2013-07-19 20:06:00,
2013-07-19 16:21:00,92.4,77.0,29.79,SSW,205,5.0,8.0,60,0.00,,,0.00,weatherlink.com 1.10,2013-07-19 20:21:00,
2013-07-19 16:36:00,92.1,76.0,29.78,South,173,0.0,10.0,60,0.00,,,0.00,weatherlink.com 1.10,2013-07-19 20:36:00,
2013-07-19 16:51:00,92.1,76.0,29.78,NW,316,2.0,5.0,60,0.00,,,0.00,weatherlink.com 1.10,2013-07-19 20:51:00,
2013-07-19 17:06:00,91.5,77.0,29.78,East,97,0.0,8.0,62,0.00,,,0.00,weatherlink.com 1.10,2013-07-19 21:06:00,
2013-07-19 17:21:00,91.1,76.0,29.77,East,82,0.0,10.0,62,0.00,,,0.00,weatherlink.com 1.10,2013-07-19 21:21:00,
2013-07-19 17:36:00,90.2,77.0,29.76,WSW,245,2.0,7.0,66,0.00,,,0.00,weatherlink.com 1.10,2013-07-19 21:36:00,
2013-07-19 17:51:00,90.9,78.0,29.76,SW,236,2.0,5.0,65,0.00,,,0.00,weatherlink.com 1.10,2013-07-19 21:51:00,
2013-07-19 18:06:00,91.0,78.0,29.76,SSE,147,2.0,6.0,65,0.00,,,0.00,weatherlink.com 1.10,2013-07-19 22:06:00,
2013-07-19 18:21:00,90.5,78.0,29.77,West,262,0.0,3.0,66,0.00,,,0.00,weatherlink.com 1.10,2013-07-19 22:21:00,
2013-07-19 18:36:00,90.0,78.0,29.77,SW,229,3.0,4.0,67,0.00,,,0.00,weatherlink.com 1.10,2013-07-19 22:36:00,
2013-07-19 18:51:00,90.0,78.0,29.77,SW,221,0.0,4.0,67,0.00,,,0.00,weatherlink.com 1.10,2013-07-19 22:51:00,
2013-07-19 19:06:00,88.9,77.0,29.77,SW,219,2.0,5.0,68,0.00,,,0.00,weatherlink.com 1.10,2013-07-19 23:06:00,
2013-07-19 19:21:00,88.2,76.0,29.77,WSW,238,0.0,3.0,68,0.00,,,0.00,weatherlink.com 1.10,2013-07-19 23:21:00,
2013-07-19 19:36:00,87.6,77.0,29.77,WSW,239,1.0,2.0,70,0.00,,,0.00,weatherlink.com 1.10,2013-07-19 23:36:00,
2013-07-19 19:51:00,86.8,77.0,29.77,WSW,238,0.0,1.0,73,0.00,,,0.00,weatherlink.com 1.10,2013-07-19 23:51:00,
2013-07-19 20:06:00,86.0,76.0,29.77,ENE,65,0.0,3.0,72,0.00,,,0.00,weatherlink.com 1.10,2013-07-20 00:06:00,
2013-07-19 20:21:00,85.4,76.0,29.77,ENE,65,0.0,1.0,74,0.00,,,0.00,weatherlink.com 1.10,2013-07-20 00:21:00,
2013-07-19 20:36:00,84.7,76.0,29.78,ENE,65,0.0,1.0,74,0.00,,,0.00,weatherlink.com 1.10,2013-07-20 00:36:00,
2013-07-19 20:51:00,84.0,76.0,29.79,ENE,78,0.0,1.0,76,0.00,,,0.00,weatherlink.com 1.10,2013-07-20 00:51:00,
2013-07-19 21:06:00,83.7,76.0,29.80,ENE,76,0.0,2.0,77,0.00,,,0.00,weatherlink.com 1.10,2013-07-20 01:06:00,
2013-07-19 21:21:00,84.3,75.0,29.80,West,269,4.0,7.0,74,0.00,,,0.00,weatherlink.com 1.10,2013-07-20 01:21:00,
2013-07-19 21:36:00,84.9,75.0,29.81,ENE,61,1.0,5.0,72,0.00,,,0.00,weatherlink.com 1.10,2013-07-20 01:36:00,
2013-07-19 21:51:00,85.0,75.0,29.80,West,278,4.0,9.0,72,0.00,,,0.00,weatherlink.com 1.10,2013-07-20 01:51:00,
2013-07-19 22:06:00,85.3,75.0,29.80,East,90,2.0,4.0,72,0.00,,,0.00,weatherlink.com 1.10,2013-07-20 02:06:00,
2013-07-19 22:22:00,85.3,75.0,29.80,WSW,244,0.0,7.0,71,0.00,,,0.00,weatherlink.com 1.10,2013-07-20 02:22:00,
2013-07-19 22:37:00,85.1,75.0,29.80,NNE,18,0.0,3.0,72,0.00,,,0.00,weatherlink.com 1.10,2013-07-20 02:37:00,
2013-07-19 22:52:00,84.7,75.0,29.79,WSW,239,1.0,9.0,73,0.00,,,0.00,weatherlink.com 1.10,2013-07-20 02:52:00,
2013-07-19 23:07:00,84.4,76.0,29.78,NNE,27,1.0,3.0,75,0.00,,,0.00,weatherlink.com 1.10,2013-07-20 03:07:00,
2013-07-19 23:22:00,83.9,76.0,29.78,WSW,245,0.0,4.0,76,0.00,,,0.00,weatherlink.com 1.10,2013-07-20 03:22:00,
2013-07-19 23:37:00,83.3,76.0,29.77,SSW,209,0.0,3.0,78,0.00,,,0.00,weatherlink.com 1.10,2013-07-20 03:37:00,
2013-07-19 23:52:00,82.5,76.0,29.78,SW,219,0.0,2.0,80,0.00,,,0.00,weatherlink.com 1.10,2013-07-20 03:52:00,